GW0844 Weather Reports


time (UTC)temp
C
wind
direction
speed
KPH
gust
KPH
rain 1hr
cm
rain 24hr
cm
rain mn
cm
humidity
%
barometer
mb
20260903131849 27 69 0.0 0.0 0.00 0.00 0.00 82 1024.0
20260903130849 26 81 0.0 0.0 0.00 0.00 0.00 87 1024.4
20260903125849 26 83 0.0 0.0 0.00 0.00 0.00 87 1024.0
20260903125349 25 99 0.0 0.0 0.00 0.00 0.00 88 1024.0
20260903124849 25 75 0.0 0.0 0.00 0.00 0.00 89 1024.0
20260903123849 24 93 0.0 0.0 0.00 0.00 0.00 92 1024.0
20260903122349 23 98 0.0 0.0 0.00 0.00 0.00 97 1024.0
20260903120849 22 88 0.0 0.0 0.00 0.00 0.00 98 1024.0
20260903115849 21 94 0.0 0.0 0.00 0.00 0.00 98 1023.7
20260903114849 20 81 0.0 0.0 0.00 0.00 0.00 98 1023.7
20260903113849 20 71 0.0 0.0 0.00 0.00 0.00 98 1023.7
20260903112849 20 73 0.0 0.0 0.00 0.00 0.00 98 1023.7
20260903112349 20 85 0.0 0.0 0.00 0.00 0.00 98 1023.7
20260903110849 20 74 0.0 0.0 0.00 0.00 0.00 98 1023.4
20260903105849 20 80 0.0 0.0 0.00 0.00 0.00 98 1023.4
20260903105349 20 79 0.0 0.0 0.00 0.00 0.00 97 1023.4
20260903104849 20 81 0.0 0.0 0.00 0.00 0.00 98 1023.4
20260903103849 20 69 0.0 0.0 0.00 0.00 0.00 98 1023.0
20260903102849 20 56 0.0 0.0 0.00 0.00 0.00 98 1023.0
20260903102349 20 84 0.0 0.0 0.00 0.00 0.00 97 1023.0
20260903101849 20 76 0.0 0.0 0.00 0.00 0.00 98 1022.7
20260903100849 20 85 0.0 0.0 0.00 0.00 0.00 97 1022.7
20260903100349 20 80 0.0 0.0 0.00 0.00 0.00 98 1022.7
20260903095849 20 68 0.0 0.0 0.00 0.00 0.00 98 1022.7
20260903095349 20 51 0.0 0.0 0.00 0.00 0.00 98 1022.7
20260903094849 20 74 0.0 0.0 0.00 0.00 0.00 98 1022.7
20260903093849 20 78 0.0 0.0 0.00 0.00 0.00 97 1023.0
20260903093349 20 87 0.0 0.0 0.00 0.00 0.00 97 1023.0
20260903092349 20 66 0.0 0.0 0.00 0.00 0.00 97 1023.0
20260903091349 20 90 0.0 0.0 0.00 0.00 0.00 97 1023.0
20260903090349 20 82 0.0 0.0 0.00 0.00 0.00 97 1023.0
20260903085849 21 87 0.0 0.0 0.00 0.00 0.00 97 1023.0
20260903084849 21 33 0.0 0.0 0.00 0.00 0.00 97 1023.0
20260903083849 21 72 0.0 0.0 0.00 0.00 0.00 97 1023.0
20260903083349 21 69 0.0 0.0 0.00 0.00 0.00 97 1023.0
20260903081349 21 74 0.0 0.0 0.00 0.00 0.00 97 1023.0
20260903080849 21 35 0.0 0.0 0.00 0.00 0.00 97 1023.0
20260903074849 21 38 0.0 0.0 0.00 0.00 0.00 97 1022.7
20260903074349 21 73 0.0 0.0 0.00 0.00 0.00 97 1022.7
20260903073349 21 47 0.0 0.0 0.00 0.00 0.00 97 1022.7
20260903072349 21 61 0.0 0.0 0.00 0.00 0.00 97 1022.7
20260903071349 21 58 0.0 0.0 0.00 0.00 0.00 97 1022.7
20260903070349 21 26 0.0 0.0 0.00 0.00 0.00 97 1022.4
20260903064349 21 90 0.0 0.0 0.00 0.00 0.00 97 1022.4
20260903063849 21 63 0.0 0.0 0.00 0.00 0.00 97 1022.7
20260903062849 21 74 0.0 0.0 0.00 0.00 0.00 96 1022.7
20260903061349 21 81 0.0 0.0 0.00 0.00 0.00 96 1022.7
20260903060349 21 67 0.0 0.0 0.00 0.00 0.00 96 1022.7
20260903054349 21 72 0.0 0.0 0.00 0.00 0.00 96 1023.0
20260903053349 22 65 0.0 0.0 0.00 0.00 0.00 96 1023.0
20260903052349 22 143 0.0 0.0 0.00 0.00 0.00 96 1023.0
20260903051349 22 48 0.0 0.0 0.00 0.00 0.00 96 1023.0
20260903050349 22 77 0.0 0.0 0.00 0.00 0.00 96 1023.0
20260903044349 22 73 0.0 0.0 0.00 0.00 0.00 95 1023.0
20260903043349 22 62 0.0 0.0 0.00 0.00 0.00 95 1023.0
20260903042849 22 69 0.0 0.0 0.00 0.00 0.00 95 1023.0
20260903041849 22 75 0.0 0.0 0.00 0.00 0.00 95 1023.0
20260903040849 22 41 0.0 0.0 0.00 0.00 0.00 95 1023.0
20260903035849 22 101 0.0 0.0 0.00 0.00 0.00 95 1023.0
20260903035349 22 67 0.0 0.0 0.00 0.00 0.00 95 1023.0
20260903033349 22 74 0.0 0.0 0.00 0.00 0.00 94 1023.0
20260903032349 22 75 0.0 0.0 0.00 0.00 0.00 94 1023.0
20260903031849 23 73 0.0 0.0 0.00 0.00 0.00 94 1023.0
20260903030849 23 20 0.0 0.0 0.00 0.00 0.00 94 1022.7
20260903025849 23 357 0.0 0.0 0.00 0.00 0.00 94 1022.7
20260903024849 23 20 0.0 0.0 0.00 0.00 0.00 93 1022.7
20260903024349 23 29 0.0 0.0 0.00 0.00 0.00 93 1023.0
20260903023849 23 70 0.0 0.0 0.00 0.00 0.00 93 1022.7
20260903022849 23 35 0.0 0.0 0.00 0.00 0.00 93 1023.0
20260903022349 23 351 0.0 0.0 0.00 0.00 0.00 93 1023.0
20260903021849 23 101 0.0 0.0 0.00 0.00 0.00 92 1023.0
20260903021349 23 93 0.0 0.0 0.00 0.00 0.00 92 1022.7
20260903020349 23 8 0.0 0.0 0.00 0.00 0.00 92 1022.7
20260903015349 24 4 0.0 0.0 0.00 0.00 0.00 91 1022.7
20260903014349 24 61 0.0 0.0 0.00 0.00 0.00 91 1022.7
20260903013349 24 11 0.0 0.0 0.00 0.00 0.00 91 1022.7
20260903012349 25 34 0.0 0.0 0.00 0.00 0.00 90 1022.4
20260903011849 25 280 0.0 0.0 0.00 0.00 0.00 89 1022.4
20260903011349 25 318 0.0 0.0 0.00 0.00 0.00 89 1022.4
20260903005349 25 75 0.0 0.0 0.00 0.00 0.00 86 1022.4
20260903003849 26 339 0.0 0.0 0.00 0.00 0.00 86 1022.0
20260903002849 26 350 0.0 0.0 0.00 0.00 0.00 85 1022.0
20260903001849 26 331 0.0 0.0 0.00 0.00 0.00 84 1022.0
20260903001349 26 286 0.0 0.0 0.00 0.00 0.00 83 1022.0
20260903000349 27 277 1.6 1.6 0.00 0.00 0.00 83 1022.0
20260902235849 27 311 1.6 1.6 0.00 0.00 0.00 82 1022.0
20260902234849 27 20 1.6 1.6 0.00 0.00 0.00 80 1022.0
20260902234349 28 329 1.6 1.6 0.00 0.00 0.00 79 1022.0
20260902233849 28 289 1.6 1.6 0.00 0.00 0.00 78 1022.0
20260902232849 28 333 1.6 1.6 0.00 0.00 0.00 73 1022.0
20260902232349 29 54 1.6 1.6 0.00 0.00 0.00 72 1022.0
20260902231349 30 292 3.2 3.2 0.00 0.00 0.00 68 1022.0
20260902225849 31 301 3.2 3.2 0.00 0.00 0.00 65 1022.0
20260902223849 34 281 1.6 1.6 0.00 0.00 0.00 59 1022.0
20260902223349 35 283 1.6 1.6 0.00 0.00 0.00 58 1022.0
20260902222849 35 178 1.6 1.6 0.00 0.00 0.00 57 1022.0
20260902222349 35 48 1.6 1.6 0.00 0.00 0.00 54 1022.0
20260902221349 35 124 3.2 3.2 0.00 0.00 0.00 48 1022.4
20260902220849 36 86 1.6 1.6 0.00 0.00 0.00 45 1022.4
20260902215849 36 158 3.2 3.2 0.00 0.00 0.00 44 1022.4
20260902215349 36 89 3.2 3.2 0.00 0.00 0.00 43 1022.4
20260902213349 35 46 4.8 4.8 0.00 0.00 0.00 45 1022.4
20260902212849 35 155 3.2 3.2 0.00 0.00 0.00 46 1022.4
20260902205849 36 145 1.6 1.6 0.00 0.00 0.00 44 1022.4
20260902205349 36 104 3.2 3.2 0.00 0.00 0.00 47 1022.4
20260902204349 36 92 3.2 3.2 0.00 0.00 0.00 44 1022.4
20260902203349 36 85 4.8 4.8 0.00 0.00 0.00 45 1022.7
20260902202849 36 69 4.8 4.8 0.00 0.00 0.00 44 1022.7
20260902201849 35 122 4.8 4.8 0.00 0.00 0.00 45 1022.7
20260902201349 36 156 4.8 4.8 0.00 0.00 0.00 42 1022.7
20260902200349 36 164 4.8 4.8 0.00 0.00 0.00 48 1022.7
20260902195849 36 173 4.8 4.8 0.00 0.00 0.00 45 1022.7
20260902194349 36 155 4.8 4.8 0.00 0.00 0.00 46 1023.0
20260902193349 36 60 4.8 4.8 0.00 0.00 0.00 44 1023.4
20260902192349 35 123 3.2 3.2 0.00 0.00 0.00 50 1023.4
20260902191849 35 71 3.2 3.2 0.00 0.00 0.00 46 1023.4
20260902190849 35 82 3.2 3.2 0.00 0.00 0.00 47 1023.4
20260902184849 35 352 3.2 3.2 0.00 0.00 0.00 50 1023.7
20260902184349 35 115 3.2 3.2 0.00 0.00 0.00 47 1023.7
20260902182849 35 87 4.8 4.8 0.00 0.00 0.00 44 1023.7
20260902181349 35 126 4.8 4.8 0.00 0.00 0.00 47 1024.0
20260902180349 35 106 4.8 4.8 0.00 0.00 0.00 52 1024.0
20260902175349 35 168 4.8 4.8 0.00 0.00 0.00 49 1024.0
20260902174349 35 138 4.8 4.8 0.00 0.00 0.00 50 1024.4
20260902172849 35 171 4.8 4.8 0.00 0.00 0.00 51 1024.4
20260902172349 34 177 4.8 4.8 0.00 0.00 0.00 49 1024.7
20260902171849 34 108 3.2 3.2 0.00 0.00 0.00 52 1024.7
20260902170849 34 337 3.2 3.2 0.00 0.00 0.00 56 1025.1
20260902165849 34 291 4.8 4.8 0.00 0.00 0.00 53 1025.1
20260902165349 34 129 4.8 4.8 0.00 0.00 0.00 55 1025.1
20260902164349 34 72 3.2 3.2 0.00 0.00 0.00 55 1025.4
20260902163349 33 219 3.2 3.2 0.00 0.00 0.00 57 1025.4
20260902161349 32 94 3.2 3.2 0.00 0.00 0.00 59 1025.4
20260902160349 33 108 3.2 3.2 0.00 0.00 0.00 58 1025.7
20260902155849 32 52 3.2 3.2 0.00 0.00 0.00 60 1025.7
20260902154849 32 110 3.2 3.2 0.00 0.00 0.00 58 1025.7
20260902154349 33 222 3.2 3.2 0.00 0.00 0.00 60 1025.7
20260902153349 32 74 3.2 3.2 0.00 0.00 0.00 64 1026.1
20260902152849 31 59 3.2 3.2 0.00 0.00 0.00 65 1026.1
20260902151849 31 113 3.2 3.2 0.00 0.00 0.00 67 1026.1
20260902151349 31 157 3.2 3.2 0.00 0.00 0.00 67 1026.1
20260902145849 31 285 1.6 1.6 0.00 0.00 0.00 68 1026.1
20260902145349 31 78 1.6 1.6 0.00 0.00 0.00 69 1025.7
20260902144349 31 42 1.6 1.6 0.00 0.00 0.00 69 1025.7
20260902143349 31 114 1.6 1.6 0.00 0.00 0.00 72 1025.7
20260902141849 30 77 1.6 1.6 0.00 0.00 0.00 73 1026.1
20260902141349 30 119 3.2 3.2 0.00 0.00 0.00 77 1026.1
20260902140349 29 111 1.6 1.6 0.00 0.00 0.00 76 1026.1
20260902135849 29 72 1.6 1.6 0.00 0.00 0.00 77 1026.1
20260902133849 28 138 3.2 3.2 0.00 0.00 0.00 81 1026.1
20260902133349 27 71 1.6 1.6 0.00 0.00 0.00 82 1026.1